Regional Weather Roundup
Issued by NWS

Home | Current Version | Previous Version | Graphics & Text | Print | Product List | Glossary Off
Versions: 1 2 3 4 5 6 7 8 9 10 11 12 13 14 15 16 17 18 19 20 21 22 23 24 25 26 27 28 29 30 31 32 33 34 35 36 37 38 39 40 41 42 43 44 45 46 47 48 49 50

000
ASUS43 KMPX 060801
RWRMN
WEATHER ROUNDUP FOR MINNESOTA
NATIONAL WEATHER SERVICE TWIN CITIES/CHANHASSEN MN
300 AM CDT FRI MAY 06 2016


NOTE: "FAIR" INDICATES FEW OR NO CLOUDS BELOW 12,000 FEET WITH NO
SIGNIFICANT WEATHER AND/OR OBSTRUCTIONS TO VISIBILITY. N/A MEANS
CURRENT SKY AND/OR WEATHER CONDITIONS ARE NOT AVAILABLE.

MNZ060>063-068>070-060900-
   Twin Cities Metro

CITY           SKY/WX    TMP DP  RH WIND       PRES   REMARKS
TWIN CITIES    CLEAR     65  41  41 SW9       29.86S
ST PAUL        CLEAR     60  44  55 CALM      29.86S
CRYSTAL        CLEAR     68  41  37 W12       29.84S
BLAINE         CLEAR     66  43  42 SW8       29.85S
EDEN PRAIRIE   CLEAR     62  41  46 W9        29.86S
SOUTH ST PAUL  CLEAR     65  40  39 W10G17    29.86S
LAKE ELMO      FAIR      63  43  48 SW9       29.86S
$$
MNZ001>005-007-008-013>017-022>024-027-028-060900-
   Northwest Minnesota

CITY           SKY/WX    TMP DP  RH WIND       PRES   REMARKS
BEMIDJI        PTCLDY    65  41  41 SW6       29.78S
HALLOCK        CLEAR     59  36  41 SE9       29.66S
ROSEAU         CLEAR     64  41  42 S10       29.68S
WARROAD        CLEAR     66  45  45 SW10      29.68S
THIEF RVR FALL CLEAR     66  37  34 SW12      29.74S
CROOKSTON      CLEAR     61  41  48 S8        29.73S
FOSSTON        CLEAR     55  39  54 S9        29.77F
DETROIT LAKES  CLOUDY    66  43  42 SW13      29.81F
MOORHEAD       CLEAR     57  45  62 S9        29.78F
PARK RAPIDS    CLEAR     63  41  44 SW7       29.81S
MAHNOMEN       FAIR      61  43  51 S12       29.78S
$$
MNZ006-009>011-018-025>026-060900-
   North Central Minnesota

CITY           SKY/WX    TMP DP  RH WIND       PRES   REMARKS
BAUDETTE       CLEAR     65  38  36 SW12      29.68S
FLAG ISLAND    PTCLDY    68  37  32 W12       29.64S
INTL FALLS     PTCLDY    58  39  49 SW6       29.70S
WASKISH        CLOUDY    70  45  40 SW16      29.73S
BIG FORK       PTCLDY    68  39  34 SW9       29.75S
LONGVILLE      CLEAR     66  41  39 SW7       29.80S
GRAND RAPIDS   PTCLDY    70  39  32 SW8       29.80S
CRANE LAKE     CLEAR     54  45  71 CALM      29.73R
ORR            CLEAR     61  37  41 CALM      29.71S
COOK           PTCLDY    64  41  42 W5        29.75S
WALKER         FAIR      69  40  35 SW12      29.79S
$$
MNZ012-019>021-037-060900-
   Northeast Minnesota

CITY           SKY/WX    TMP DP  RH WIND       PRES   REMARKS
DULUTH         PTCLDY    62  42  47 W13       29.78S
ELY            CLEAR     63  41  45 SW3       29.74S
HIBBING        CLEAR     65  40  39 W7        29.77S
EVELETH        CLEAR     52  43  71 CALM      29.77F
DULUTH HARBOR  PTCLDY    45  37  76 CALM      29.78S
TWO HARBORS    CLOUDY    48  43  81 CALM      29.74F
SILVER BAY     PTCLDY    43  37  81 CALM      29.73F
GRAND MARAIS     N/A     42  37  82 CALM      29.73F
G MARAIS ARPRT CLOUDY    43  34  70 N3        29.75F
$$
MNZ029>031-032-039>041-046>048-054>057-064-060900-
   West Central Minnesota

CITY           SKY/WX    TMP DP  RH WIND       PRES   REMARKS
FERGUS FALLS   PTCLDY    59  43  55 S9        29.79F
WHEATON        CLEAR     63  45  51 S10       29.83F
MORRIS         CLEAR     57  45  62 S8        29.84F
ALEXANDRIA     CLEAR     63  43  48 SW13      29.87F
ELBOW LAKE     FAIR      57  44  61 S10       29.84S
WADENA         CLEAR     64  43  45 SW7       29.83S
GLENWOOD       CLEAR     55  45  67 SW7       29.88S
APPLETON       CLEAR     61  43  51 S5        29.85F
BENSON         CLEAR     57  43  58 SW7       29.87S
ORTONVILLE     CLEAR     55  45  67 S5        29.84F
MADISON        CLEAR     61  43  51 SW9       29.85F
WILLMAR        FAIR      63  43  48 S5        29.89F
$$
MNZ033>034-036-042>043-049>051-058-059-060900-
   Central Minnesota

CITY           SKY/WX    TMP DP  RH WIND       PRES   REMARKS
ST CLOUD       CLEAR     64  43  46 SW8       29.85S
SAUK CENTRE      N/A     60  44  54 SW7       29.86F
PAYNESVILLE    CLEAR     64  40  41 SW8       29.88F
AITKIN         CLEAR     64  37  36 SW5       29.80S
PINE RIVER     CLEAR     66  45  45 SW5       29.84F
BRAINERD       CLEAR     60  41  49 CALM      29.83S
STAPLES        CLEAR     64  39  39 SW9G16    29.83S
LONG PRAIRIE   FAIR      59  43  55 SW6       29.87S
LITTLE FALLS   CLEAR     63  43  48 SW6       29.85S
LITCHFIELD     CLEAR     64  41  42 SW8       29.88F
BUFFALO        CLEAR     61  42  50 SW5       29.87S
MAPLE LAKE     CLEAR     64  45  50 SW6       29.87S
HUTCHINSON     CLEAR     65  43  45 SW10      29.90S
$$
MNZ037-044-045-052-053-060900-
   East Central Minnesota

CITY           SKY/WX    TMP DP  RH WIND       PRES   REMARKS
PRINCETON      CLEAR     64  45  48 SW5       29.84F
MORA           CLEAR     59  43  55 W3        29.84F
CAMBRIDGE      CLEAR     66  48  52 SW3       29.82S
RUSH CITY      MOCLDY    64  45  49 W8        29.83S
MOOSE LAKE     CLEAR     66  39  37 W9G16     29.77S
HINCKLEY       CLOUDY    52  43  71 SW6       29.81S
CLOQUET        CLEAR     68  37  32 W10       29.79R
MCGREGOR       CLEAR     64  43  45 SW5       29.80F
$$
MNZ071>073-080-081-089-090-097-098-060900-
   Southwest Minnesota

CITY           SKY/WX    TMP DP  RH WIND       PRES   REMARKS
MONTEVIDEO     CLEAR     55  43  62 SW6       29.89S
GRANITE FALLS  CLEAR     54  43  65 S7        29.89F
CANBY          CLEAR     67  43  41 SW16G22   29.87F
MARSHALL       CLEAR     66  41  40 SW18G24   29.87
REDWOOD FALLS  CLEAR     58  41  53 SW10      29.89F
OLIVIA         CLEAR     54  39  58 S7        29.89F
PIPESTONE      CLEAR     55  43  62 SW8       29.93S
WINDOM         CLEAR     57  43  58 SW8       29.94S
WORTHINGTON    CLEAR     60  42  51 SW16      29.94F
JACKSON        PTCLDY    57  37  47 SW10      29.95S
TRACY          CLEAR     61  43  51 SW20      29.90F
SLAYTON        CLEAR     58  41  54 SW15      29.94S
$$
MNZ065>067-074>077-082>085-091>093-060900-
   South Central Minnesota

CITY           SKY/WX    TMP DP  RH WIND       PRES   REMARKS
MANKATO        CLEAR     63  39  42 SW6       29.91F
ST JAMES       CLEAR     50  39  66 CALM      29.93S
FAIRMONT       CLEAR     57  37  47 SW13      29.92F
GLENCOE        CLEAR     63  45  51 SW8       29.89S
FARIBAULT      CLEAR     57  43  58 SW7       29.91S
OWATONNA       CLEAR     59  39  47 SW10      29.91F
WASECA         CLEAR     52  39  62 SW3       29.93S
ALBERT LEA     CLEAR     64  37  36 SW8       29.92F
$$
MNZ078>079-086>088-094>096-060900-
   Southeast Minnesota

CITY           SKY/WX    TMP DP  RH WIND       PRES   REMARKS
ROCHESTER      CLEAR     58  40  51 W13       29.91F
RED WING       CLEAR     57  41  54 W5        29.86S
STANTON        CLEAR     57  41  55 SW6       29.87F
DODGE CENTER   CLEAR     54  39  58 W10       29.91S
WINONA         CLEAR     54  41  62 W3        29.89S
AUSTIN         CLEAR     54  39  58 SW6       29.92F
PRESTON        CLEAR     53  37  54 SW10      29.91F
$$
ABBREVIATIONS USED IN REMARKS
   TC - TEMPERATURES IN CELSIUS
  WCI - WIND CHILL INDEX
   HX - HEAT INDEX
  VSB - VISIBILITY
$$




USA.gov is the U.S. government's official web portal to all federal, state and local government web resources and services.